Location: L�Ave Maria
(50.7161°N, 1.5911°E)
Time: 13:14:10
(UTC+00:00)

Cosmos 332 Rocket - Pass Details

Date: 10 July 2020
Orbit: 682 x 703 km, 74.0° (Epoch: 07 August)

Event Time Altitude Azimuth Distance (km) Brightness Sun altitude
Rises 23:15:11 0° 331° (NNW) 3,057 8.5 -16.6°
Reaches altitude 10° 23:17:34 10° 326° (NW) 2,137 7.3 -16.6°
Maximum altitude 23:22:09 46° 254° (WSW) 916 4.3 -16.8°
Enters shadow 23:24:19 27° 197° (SSW) 1,292 4.7 -16.8°
